Tracking 35237 objects as of 6-Sep-2026
HD Live streaming from Space Station
objects crossing your sky now

HULIANWANG DIGUI-125

Track HULIANWANG DIGUI-125 now!
10-day predictions


NORAD ID: 67065
Int'l Code: 2025-295G
Launch date: December 11, 2025
Source: People's Republic of China (PRC)
Launch site: Wenchang Satellite Launch Center (WSC)
Your satellite tracking list
Your tracking list is empty




NASA's NSSDC Master Catalog

Two Line Element Set (TLE):
1 67065U 25295G   26248.99938731 -.00000099  00000-0  53753-4 0  9994
2 67065  49.9978  95.3928 0000886  29.9807 330.1116 13.29325498 36252
Source of the keplerian elements: AFSPC